Location: Poughquag
(41.6090°N, 73.6820°W)
Time: 06:51:59
(UTC-05:00)

Altair - Pass Details

Date: 05 December 2023
Orbit: 1501 x 1682 km, 47.2° (Epoch: 02 March)

Event Time Altitude Azimuth Distance (km) Brightness Sun altitude
Rises 07:58:05 0° 232° (SW) 4,848 10.0 7.2°
Reaches altitude 10° 08:01:15 10° 231° (SW) 3,841 9.5 7.7°
Maximum altitude 08:10:58 75° 148° (SSE) 1,620 8.1 9.1°
Drops below altitude 10° 08:20:20 10° 65° (ENE) 3,710 9.9 10.4°
Sets 08:23:20 0° 64° (ENE) 4,676 10.3 10.8°
